Weather History for Brunswick, GA

Change the Weather History Date:

Saturday, September 13, 2014

  Actual Average Record
Temperature  
Mean Temperature 82 °F -  
Max Temperature 91 °F 87 °F 95 °F (1963)
Min Temperature 73 °F 70 °F 55 °F (1998)
Cooling Degree Days 17    
Growing Degree Days 32 (Base 50)    
Moisture  
Dew Point 72 °F    
Average Humidity 73    
Maximum Humidity 94    
Minimum Humidity 49    
Precipitation  
Precipitation 0.00 in - - ()
Sea Level Pressure  
Sea Level Pressure 30.05 in    
Wind  
Wind Speed 2 mph (SSE)    
Max Wind Speed 10 mph    
Max Gust Speed -    
Visibility 9 miles    
Events Thunderstorm    
Averages and records for this station are not official NWS values.
T = Trace of Precipitation, MM = Missing Value Source: NWS Daily Summary

Daily Weather History Graph

Daily Weather History Graph

Search for Another Location

Airport:

Trip Planner

Search our weather history database for the weather conditions in past years. The results will help you decide how hot, cold, wet, or windy it might be!

Date:

Astronomy

Sep. 13, 2014 Rise Set
Actual Time 7:08 AM EDT 7:34 PM EDT
Civil Twilight 6:44 AM EDT 7:58 PM EDT
Nautical Twilight 6:15 AM EDT 8:26 PM EDT
Astronomical Twilight 5:47 AM EDT 8:55 PM EDT
Moon 10:58 PM EDT (9/13) 11:54 AM EDT (9/13)
Length of Visible Light 13h 13m
Length of Day
12h 25m
Waning Gibbous, 74% of the Moon is Illuminated
Sep 13
Waning Gibbous
Sep 15
Last Quarter
Sep 24
New
Oct 1
First Quarter
Oct 8
Full

Hourly Weather History & Observations

Time (EDT) Temp. Heat Index Dew Point Humidity Pressure Visibility Wind Dir Wind Speed Gust Speed Precip Events Conditions
12:15 AM 82.4 °F 88.2 °F 73.4 °F 74% 30.04 in 10.0 mi Calm Calm - N/A   Clear
12:35 AM 77.0 °F - 73.4 °F 89% 30.04 in 10.0 mi Calm Calm - N/A   Clear
12:55 AM 77.0 °F - 73.4 °F 89% 30.03 in 10.0 mi Calm Calm - N/A   Clear
1:15 AM 77.0 °F - 73.4 °F 89% 30.03 in 10.0 mi Calm Calm - N/A   Clear
1:35 AM 77.0 °F - 73.4 °F 89% 30.03 in 10.0 mi Calm Calm - N/A   Clear
1:55 AM 77.0 °F - 73.4 °F 89% 30.03 in 10.0 mi Calm Calm - N/A   Clear
2:15 AM 77.0 °F - 73.4 °F 89% 30.02 in 10.0 mi Calm Calm - N/A   Clear
2:35 AM 77.0 °F - 73.4 °F 89% 30.02 in 10.0 mi Calm Calm - N/A   Clear
2:55 AM 77.0 °F - 73.4 °F 89% 30.02 in 1.8 mi Calm Calm - N/A   Unknown
3:15 AM 77.0 °F - 73.4 °F 89% 30.02 in 10.0 mi Calm Calm - N/A   Clear
3:35 AM 75.2 °F - 71.6 °F 89% 30.01 in 7.0 mi Calm Calm - N/A   Clear
3:55 AM 75.2 °F - 71.6 °F 89% 30.01 in 1.0 mi Calm Calm - N/A   Unknown
4:15 AM 75.2 °F - 73.4 °F 94% 30.01 in 10.0 mi Calm Calm - N/A   Clear
4:35 AM 75.2 °F - 71.6 °F 89% 30.01 in 1.0 mi Calm Calm - N/A   Unknown
4:55 AM 75.2 °F - 71.6 °F 89% 30.02 in 2.5 mi Calm Calm - N/A   Clear
5:15 AM 73.4 °F - 71.6 °F 94% 30.02 in 5.0 mi Calm Calm - N/A   Clear
5:35 AM 73.4 °F - 71.6 °F 94% 30.02 in 1.8 mi Calm Calm - N/A   Unknown
5:55 AM 75.2 °F - 71.6 °F 89% 30.03 in 7.0 mi Calm Calm - N/A   Clear
6:15 AM 73.4 °F - 71.6 °F 94% 30.03 in 7.0 mi Calm Calm - N/A   Scattered Clouds
6:35 AM 75.2 °F - 71.6 °F 89% 30.04 in 10.0 mi Calm Calm - N/A   Mostly Cloudy
6:55 AM 75.2 °F - 71.6 °F 89% 30.05 in 10.0 mi Calm Calm - N/A   Mostly Cloudy
7:15 AM 73.4 °F - 71.6 °F 94% 30.05 in 1.2 mi Calm Calm - N/A   Mostly Cloudy
7:35 AM 75.2 °F - 71.6 °F 89% 30.06 in 5.0 mi Calm Calm - N/A   Clear
7:55 AM 75.2 °F - 73.4 °F 94% 30.06 in 10.0 mi Calm Calm - N/A   Clear
8:15 AM 77.0 °F - 73.4 °F 89% 30.06 in 10.0 mi Calm Calm - N/A   Clear
8:35 AM 78.8 °F - 75.2 °F 89% 30.06 in 10.0 mi Calm Calm - N/A   Clear
8:55 AM 80.6 °F 87.1 °F 77.0 °F 89% 30.07 in 10.0 mi Calm Calm - N/A   Clear
9:15 AM 82.4 °F 89.5 °F 75.2 °F 79% 30.07 in 10.0 mi Calm Calm - N/A   Clear
9:35 AM 82.4 °F 89.5 °F 75.2 °F 79% 30.08 in 10.0 mi WSW 6.9 mph - N/A   Clear
9:55 AM 84.2 °F 90.9 °F 73.4 °F 70% 30.08 in 10.0 mi WSW 3.5 mph - N/A   Scattered Clouds
10:15 AM 86.0 °F 93.4 °F 73.4 °F 66% 30.08 in 10.0 mi WSW 4.6 mph - N/A   Clear
10:35 AM 86.0 °F 91.8 °F 71.6 °F 62% 30.08 in 10.0 mi SW 6.9 mph - N/A   Clear
10:55 AM 87.8 °F 93.8 °F 71.6 °F 58% 30.09 in 10.0 mi WSW 5.8 mph - N/A   Scattered Clouds
11:15 AM 87.8 °F 93.8 °F 71.6 °F 58% 30.08 in 10.0 mi SW 5.8 mph - N/A   Scattered Clouds
11:35 AM 87.8 °F 92.6 °F 69.8 °F 55% 30.08 in 10.0 mi WSW 4.6 mph - N/A   Scattered Clouds
11:55 AM 89.6 °F 96.2 °F 71.6 °F 55% 30.09 in 10.0 mi South 4.6 mph - N/A   Scattered Clouds
12:15 PM 87.8 °F 93.8 °F 71.6 °F 58% 30.08 in 10.0 mi WSW 5.8 mph - N/A   Mostly Cloudy
12:35 PM 87.8 °F 92.6 °F 69.8 °F 55% 30.08 in 10.0 mi SSW 5.8 mph - N/A   Mostly Cloudy
12:55 PM 89.6 °F 94.7 °F 69.8 °F 52% 30.08 in 10.0 mi Calm Calm - N/A   Scattered Clouds
1:15 PM 89.6 °F 94.7 °F 69.8 °F 52% 30.07 in 10.0 mi SSE 9.2 mph - N/A   Clear
1:35 PM 89.6 °F 96.2 °F 71.6 °F 55% 30.06 in 10.0 mi SSW 6.9 mph - N/A   Clear
1:55 PM 89.6 °F 96.2 °F 71.6 °F 55% 30.06 in 10.0 mi Calm Calm - N/A   Scattered Clouds
2:15 PM 89.6 °F 96.2 °F 71.6 °F 55% 30.05 in 10.0 mi SE 4.6 mph - N/A   Clear
2:35 PM 89.6 °F 96.2 °F 71.6 °F 55% 30.04 in 10.0 mi South 6.9 mph - N/A   Clear
2:55 PM 89.6 °F 96.2 °F 71.6 °F 55% 30.03 in 10.0 mi South 5.8 mph - N/A   Clear
3:15 PM 89.6 °F 96.2 °F 71.6 °F 55% 30.02 in 10.0 mi SE 6.9 mph - N/A   Clear
3:35 PM 91.4 °F 96.8 °F 69.8 °F 49% 30.01 in 10.0 mi ESE 4.6 mph - N/A   Clear
3:55 PM 89.6 °F 94.7 °F 69.8 °F 52% 30.01 in 10.0 mi ESE 6.9 mph - N/A   Clear
4:15 PM 89.6 °F 94.7 °F 69.8 °F 52% 30.00 in 10.0 mi SSE 5.8 mph - N/A   Clear
4:35 PM 89.6 °F 96.2 °F 71.6 °F 55% 30.00 in 10.0 mi SE 8.1 mph - N/A   Clear
4:55 PM 89.6 °F 94.7 °F 69.8 °F 52% 30.01 in 10.0 mi SE 8.1 mph - N/A   Clear
5:15 PM 89.6 °F 96.2 °F 71.6 °F 55% 30.01 in 10.0 mi ESE 10.4 mph - N/A   Clear
5:35 PM 89.6 °F 96.2 °F 71.6 °F 55% 30.02 in 10.0 mi SSE 9.2 mph - N/A   Clear
5:55 PM 87.8 °F 93.8 °F 71.6 °F 58% 30.03 in 10.0 mi SE 9.2 mph - N/A   Clear
6:15 PM 87.8 °F 93.8 °F 71.6 °F 58% 30.02 in 10.0 mi SE 8.1 mph - N/A   Clear
6:35 PM 86.0 °F 90.4 °F 69.8 °F 58% 30.03 in 10.0 mi SE 8.1 mph - N/A   Clear
6:55 PM 86.0 °F 91.8 °F 71.6 °F 62% 30.04 in 10.0 mi SE 6.9 mph - N/A   Clear
7:15 PM 84.2 °F 89.6 °F 71.6 °F 66% 30.05 in 10.0 mi SE 5.8 mph - N/A   Clear
7:35 PM 84.2 °F 89.6 °F 71.6 °F 66% 30.05 in 10.0 mi SE 4.6 mph - N/A   Clear
7:55 PM 82.4 °F 87.2 °F 71.6 °F 70% 30.05 in 10.0 mi SE 4.6 mph - N/A   Clear
8:15 PM 82.4 °F 88.2 °F 73.4 °F 74% 30.06 in 10.0 mi SE 5.8 mph - N/A   Clear
8:35 PM 82.4 °F 88.2 °F 73.4 °F 74% 30.06 in 10.0 mi SE 5.8 mph - N/A Thunderstorm Clear
8:55 PM 82.4 °F 88.2 °F 73.4 °F 74% 30.06 in 10.0 mi SSE 6.9 mph - N/A Thunderstorm Clear
9:15 PM 82.4 °F 88.2 °F 73.4 °F 74% 30.07 in 10.0 mi SSE 5.8 mph - N/A   Clear
9:35 PM 82.4 °F 88.2 °F 73.4 °F 74% 30.08 in 10.0 mi SSE 5.8 mph - N/A   Clear
9:55 PM 82.4 °F 88.2 °F 73.4 °F 74% 30.08 in 10.0 mi South 3.5 mph - N/A   Clear
10:15 PM 82.4 °F 88.2 °F 73.4 °F 74% 30.09 in 10.0 mi SSE 4.6 mph - N/A   Clear
10:35 PM 82.4 °F 88.2 °F 73.4 °F 74% 30.10 in 10.0 mi SSE 4.6 mph - N/A Thunderstorm Clear
10:55 PM 82.4 °F 88.2 °F 73.4 °F 74% 30.11 in 10.0 mi SSE 3.5 mph - N/A Thunderstorm Clear
11:15 PM 82.4 °F 88.2 °F 73.4 °F 74% 30.11 in 10.0 mi Calm Calm - N/A Thunderstorm Clear
11:35 PM 82.4 °F 87.2 °F 71.6 °F 70% 30.11 in 10.0 mi South 4.6 mph - N/A Thunderstorm Clear
11:55 PM 82.4 °F 87.2 °F 71.6 °F 70% 30.12 in 10.0 mi South 4.6 mph - N/A   Clear